{"data":{"norad_id":64088,"epoch":"2026-09-21T22:47:43.332576Z","epoch_age_seconds":70245,"freshness":"FRESH","line1":"1 64088U 25108B   26264.94980709  .00005334  00000+0  25234-3 0  9991","line2":"2 64088  97.4657 339.6727 0008319  44.0043 316.1853 15.19766684 74055","mean_motion":15.19766684,"eccentricity":0.0008319,"inclination_deg":97.4657,"raan_deg":339.6727,"arg_perigee_deg":44.0043,"mean_anomaly_deg":316.1853,"bstar":0.00025234,"rev_number":7405,"period_min":94.751386193698,"perigee_km":500.81778507971,"apogee_km":512.27251924447,"semimajor_km":6884.6821521621,"source":"CELESTRAK","updated_at":"2026-09-22T09:00:29.532606Z"}}